Terug naar catalogus

COSMOS 397 DEB *

ActiefLEO
NORAD 5720·DEBRIS·🇷🇺 Russia

Gelanceerd Feb 25, 1971 vanaf Baikonur Cosmodrome

Loading…

Volgende Passages (komende 24 uur)

TLE

VersSource: Space-Track

Epoch: Sep 13, 2026, 09:32 UTC

1 05720U 71015CB  26256.39749960  .00000040  00000-0  68706-4 0  9991
2 05720  66.7281  33.8243 0110712 265.1689  93.6749 14.06598668773848

Volg COSMOS 397 DEB * in realtime met AllMySat

Download on the App Store